Date,TemperatureHighF,TemperatureAvgF,TemperatureLowF,DewpointHighF,DewpointAvgF,DewpointLowF,HumidityHigh,HumidityAvg,HumidityLow,PressureMaxIn,PressureMinIn,WindSpeedMaxMPH,WindSpeedAvgMPH,GustSpeedMaxMPH,PrecipitationSumIn
2014-2-1,25.0,14.2,8.0,20.0,11.2,6.0,94,88,82,0.00,40.00,3,1,0,0.00
2014-2-2,19.0,17.2,14.0,16.0,11.3,7.0,94,78,70,0.00,40.00,7,4,0,0.00
2014-2-3,19.0,14.5,10.0,8.0,6.5,4.0,80,70,58,0.00,40.00,5,2,0,0.00
2014-2-4,24.0,16.7,10.0,13.0,9.8,7.0,91,75,59,0.00,40.00,4,2,0,0.00
2014-2-5,15.0,13.8,11.0,10.0,6.4,3.0,79,70,66,0.00,40.00,11,6,0,0.00
2014-2-6,13.0,10.0,7.0,7.0,4.7,3.0,86,78,67,0.00,40.00,10,4,0,0.00
2014-2-7,14.0,10.0,4.0,6.0,3.7,0.0,84,75,69,0.00,40.00,13,10,0,0.00
2014-2-8,20.0,11.6,3.0,8.0,3.4,-1.0,83,71,52,0.00,40.00,7,3,0,0.00
2014-2-9,21.0,14.4,11.0,12.0,8.8,5.0,90,79,49,0.00,40.00,6,2,0,0.00
2014-2-10,10.0,7.4,4.0,8.0,1.9,-2.0,90,77,60,0.00,40.00,8,3,0,0.00
2014-2-11,19.0,7.8,-3.0,1.0,-2.0,-8.0,79,66,44,0.00,40.00,2,1,0,0.00
2014-2-12,20.0,13.1,7.0,15.0,6.9,2.0,83,75,69,0.00,40.00,8,5,0,0.00
2014-2-13,28.0,23.3,19.0,16.0,11.0,5.0,85,60,37,0.00,40.00,8,6,0,0.00
2014-2-14,24.0,19.8,9.0,20.0,16.0,4.0,94,85,78,0.00,40.00,12,6,0,0.00
2014-2-15,20.0,13.0,6.0,4.0,2.5,1.0,79,64,48,0.00,40.00,6,3,0,0.00
2014-2-16,19.0,12.4,2.0,10.0,6.3,-1.0,89,76,63,0.00,40.00,11,5,0,0.00
2014-2-17,20.0,12.5,2.0,12.0,3.3,-2.0,91,68,43,0.00,40.00,11,6,0,0.00
2014-2-18,35.0,21.7,11.0,23.0,16.7,9.0,92,82,58,0.00,40.00,6,3,0,0.01
2014-2-19,41.0,32.1,19.0,27.0,21.6,18.0,96,68,43,0.00,40.00,6,4,0,0.00
2014-2-20,38.0,32.6,29.0,31.0,25.0,20.0,85,74,68,0.00,40.00,17,6,0,0.02
2014-2-21,37.0,27.8,23.0,32.0,22.0,17.0,88,78,67,0.00,40.00,18,16,0,0.00
2014-2-22,25.0,22.8,20.0,15.0,13.8,12.0,80,68,58,0.00,40.00,13,12,0,0.00
2014-2-23,20.0,17.0,14.0,11.0,9.5,8.0,77,72,67,0.00,40.00,9,8,0,0.00
2014-2-24,15.0,13.7,13.0,12.0,6.9,3.0,91,75,57,0.00,40.00,11,7,0,0.00
2014-2-25,14.0,9.9,4.0,8.0,3.3,-1.0,86,75,64,0.00,40.00,10,6,0,0.00
2014-2-26,11.0,7.6,2.0,7.0,-0.5,-6.0,83,69,58,0.00,40.00,13,10,0,0.00
2014-2-27,10.0,1.7,-9.0,8.0,-5.3,-14.0,90,73,46,0.00,40.00,17,9,0,0.00
2014-2-28,14.0,-0.2,-15.0,6.0,-9.3,-19.0,85,66,45,0.00,40.00,9,5,0,0.00